DateTimeUTC,F1_A11,F1_S11,BsB_S11,BsG_S11,BsR_S11,BbsB_S11,BbsG_S11,BbsR_S11,BaB_A11,BaG_A11,BaR_A11,Tu_S11,T_S11,Uu_S11,U_S11,P_S11,T1_A11
2021-02-21T18:00:00Z,00000200,21000000,,,,,,,0000.08,0000.21,-000.01,17.0,24.3,,00.0,0632.4,31.0
2021-02-21T18:01:00Z,00000200,21000000,,,,,,,0000.03,-000.21,0000.27,17.0,24.3,,00.0,0632.3,31.0
2021-02-21T18:02:00Z,00000200,21000000,,,,,,,0000.10,0000.30,-000.33,17.0,24.3,,00.0,0632.3,31.0
2021-02-21T18:03:00Z,00000200,61000000,,,,,,,0000.35,0000.11,0000.28,17.0,24.3,,00.0,0632.3,31.0
2021-02-21T18:04:00Z,00000200,41000000,0000.31,-000.08,0000.16,0000.11,-000.09,-000.05,-000.09,0000.11,0000.00,17.3,24.2,,00.0,0633.2,31.0
2021-02-21T18:05:00Z,00000200,01000000,0000.43,-000.12,-000.07,0000.02,-000.27,-000.15,0000.16,0000.15,-000.18,17.4,24.1,,00.0,0633.3,31.0
2021-02-21T18:06:00Z,00000200,01000000,-000.17,0000.09,-000.05,0000.24,0000.06,0000.11,-000.44,-000.31,0000.12,17.4,24.1,,00.0,0633.3,31.0
2021-02-21T18:07:00Z,00000200,01000000,0000.06,0000.13,0000.14,0000.05,-000.14,0000.12,0000.40,0000.13,0000.10,17.4,24.1,,00.0,0633.2,31.0
2021-02-21T18:08:00Z,00000200,01000000,0000.06,-000.05,-000.09,-000.06,-000.01,0000.17,-000.06,0000.27,0000.15,17.4,24.1,,00.0,0633.2,31.0
2021-02-21T18:09:00Z,00000200,01000000,0000.07,-000.19,-000.22,-000.32,-000.09,-000.16,0000.18,-000.16,0000.04,17.4,24.1,,00.0,0633.3,31.0
2021-02-21T18:10:00Z,00000200,01000000,0000.45,-000.05,0000.07,0000.73,0000.25,-000.01,0000.00,0000.25,-000.05,17.4,24.1,,00.0,0633.3,31.0
2021-02-21T18:11:00Z,00000200,01000000,0000.52,0000.05,0000.08,-000.28,-000.31,0000.10,-000.05,-000.34,0000.13,17.3,24.0,,00.0,0633.4,31.0
2021-02-21T18:12:00Z,00000200,01000000,0000.57,0000.05,0000.32,-000.11,0000.17,0000.24,-000.25,0000.34,-000.41,17.3,24.0,,00.0,0633.2,31.0
2021-02-21T18:13:00Z,00000200,01000000,0000.32,0000.24,-000.26,-000.12,-000.18,-000.20,0000.05,-000.27,0000.42,17.3,24.0,,00.0,0633.3,31.0
2021-02-21T18:14:00Z,00000200,01000000,0000.25,-000.03,-000.03,0000.08,-000.30,-000.03,-000.17,-000.01,-000.43,17.2,24.0,,00.0,0633.3,31.0
2021-02-21T18:15:00Z,00000200,01000000,0000.80,0000.18,-000.09,0000.13,-000.00,-000.19,0000.14,0000.12,0000.22,17.2,24.0,,00.0,0633.3,31.0
2021-02-21T18:16:00Z,00000200,01000000,0000.48,0000.02,0000.24,0000.31,-000.15,0000.11,0000.09,0000.01,0000.06,17.3,24.0,,00.0,0633.3,31.0
2021-02-21T18:17:00Z,00000200,01000000,0000.37,0000.10,-000.20,-000.12,-000.07,-000.24,0000.57,0000.01,0000.05,17.3,24.0,,00.0,0633.4,31.0
2021-02-21T18:18:00Z,00000200,01000000,0000.12,-000.02,0000.11,-000.35,0000.08,-000.10,-000.22,-000.07,-000.29,17.4,24.0,00.0,00.0,0633.3,31.0
2021-02-21T18:19:00Z,00000200,01000000,-000.02,0000.05,0000.02,-000.05,-000.06,0000.06,-000.16,0000.07,0000.10,17.4,24.1,00.0,00.0,0633.4,31.0
2021-02-21T18:20:00Z,00000200,01000000,0000.22,0000.02,-000.02,-000.07,-000.01,-000.01,-000.21,-000.11,-000.02,17.5,24.1,,00.0,0633.4,31.0
2021-02-21T18:21:00Z,00000200,01000000,0000.37,0000.06,0000.19,0000.02,-000.15,0000.09,0000.30,0000.29,0000.14,17.5,24.1,,00.0,0633.4,31.0
2021-02-21T18:22:00Z,00000200,01000000,0000.73,-000.14,0000.04,0000.03,0000.04,0000.30,-000.23,0000.36,0000.44,17.4,24.1,00.0,00.0,0633.4,31.0
2021-02-21T18:23:00Z,00000200,01000000,-000.05,-000.32,0000.06,-000.30,0000.00,0000.11,0000.12,-000.45,-000.36,17.4,24.1,,00.0,0633.5,31.0
2021-02-21T18:24:00Z,00000200,01000000,0000.52,-000.09,0000.22,0000.21,-000.07,0000.12,0000.30,0000.12,-000.04,17.4,24.0,00.0,00.0,0633.5,31.0
2021-02-21T18:25:00Z,00000200,01000000,0000.34,0000.34,-000.25,-000.50,-000.16,-000.14,-000.35,0000.41,0000.19,17.4,24.0,,00.0,0633.5,31.0
2021-02-21T18:26:00Z,00000200,01000000,0000.35,0000.10,-000.03,0000.04,-000.21,0000.13,0000.31,-000.43,0000.02,17.3,24.0,00.0,00.0,0633.5,31.0
2021-02-21T18:27:00Z,00000200,01000000,0000.45,0000.09,-000.05,-000.04,-000.02,0000.12,-000.10,0000.11,-000.25,17.3,24.0,,00.0,0633.5,31.0
2021-02-21T18:28:00Z,00000200,01000000,0000.45,-000.04,-000.10,0000.21,0000.29,-000.06,0000.34,0000.09,0000.15,17.3,24.0,,00.0,0633.5,31.0
2021-02-21T18:29:00Z,00000200,01000000,0000.60,0000.13,0000.21,0000.09,0000.05,0000.08,-000.13,-000.23,-000.16,17.3,24.0,,00.0,0633.5,31.0
2021-02-21T18:30:00Z,00000200,01000000,-000.02,0000.12,0000.23,-000.17,0000.14,0000.22,-000.31,-000.25,0000.01,17.3,24.0,,00.0,0633.5,31.0
2021-02-21T18:31:00Z,00000200,01000000,0000.70,0000.08,0000.09,-000.06,0000.04,-000.14,0000.17,0000.23,0000.31,17.3,24.0,,00.0,0633.6,31.0
2021-02-21T18:32:00Z,00000200,01000000,0000.43,-000.05,0000.16,-000.39,-000.15,0000.14,0000.04,0000.27,0000.28,17.4,24.0,,00.0,0633.6,31.0
2021-02-21T18:33:00Z,00000200,01000000,-000.06,0000.10,0000.06,-000.20,-000.23,-000.07,0000.16,0000.13,-000.22,17.5,24.0,,00.0,0633.6,31.0
2021-02-21T18:34:00Z,00000200,01000000,0000.43,-000.03,0000.05,-000.02,-000.06,0000.09,0000.24,-000.03,-000.25,17.5,24.1,,00.0,0633.6,31.0
2021-02-21T18:35:00Z,00000200,01000000,0000.28,0000.06,0000.10,-000.07,-000.00,0000.05,0000.04,0000.21,0000.52,17.6,24.1,,00.0,0633.6,31.0
2021-02-21T18:36:00Z,00000200,01000000,0000.06,-000.00,-000.05,-000.38,-000.15,0000.09,-000.29,-000.20,-000.24,17.6,24.1,,00.0,0633.6,31.0
2021-02-21T18:37:00Z,00000200,01000000,0000.30,0000.11,-000.22,0000.07,-000.28,-000.21,-000.13,0000.13,-000.25,17.6,24.1,,00.0,0633.6,31.0
2021-02-21T18:38:00Z,00000200,01000000,0000.20,-000.20,0000.22,-000.09,0000.06,0000.16,0000.04,-000.17,0000.25,17.5,24.1,,00.0,0633.7,31.0
2021-02-21T18:39:00Z,00000200,01000000,0000.24,0000.02,0000.11,-000.20,-000.03,0000.07,0000.01,0000.46,-000.02,17.5,24.1,,00.0,0633.6,31.0
2021-02-21T18:40:00Z,00000200,01000000,0000.41,-000.03,-000.06,-000.12,-000.26,0000.09,0000.01,-000.47,-000.15,17.5,24.1,,00.0,0633.7,31.0
2021-02-21T18:41:00Z,00000200,01000000,0001.09,0000.15,0000.17,0000.18,-000.33,0000.04,-000.05,-000.03,-000.10,17.5,24.1,,00.0,0633.7,31.0
2021-02-21T18:42:00Z,00000200,01000000,0000.98,0000.10,0000.15,-000.24,0000.09,0000.16,0000.28,-000.03,0000.38,17.5,24.1,,00.0,0633.7,31.0
2021-02-21T18:43:00Z,00000200,01000000,0000.11,-000.04,0000.42,0000.25,0000.13,0000.18,-000.07,0000.53,0000.16,17.4,24.1,,00.0,0633.7,31.0
2021-02-21T18:44:00Z,00000200,01000000,0000.59,-000.04,-000.01,0000.36,-000.16,-000.09,-000.32,-000.69,-000.19,17.4,24.1,,00.0,0633.7,31.0
2021-02-21T18:45:00Z,00000200,01000000,0000.06,0000.03,-000.02,0000.34,-000.14,-000.00,0000.29,0000.11,-000.33,17.4,24.1,,00.0,0633.8,31.0
2021-02-21T18:46:00Z,00000200,01000000,0000.43,-000.00,-000.00,-000.22,-000.15,0000.11,0000.04,0000.18,-000.11,17.4,24.0,,00.0,0633.8,31.0
2021-02-21T18:47:00Z,00000200,01000000,0000.15,-000.11,-000.23,-000.03,-000.04,-000.15,-000.02,0000.05,0000.42,17.5,24.1,,00.0,0633.8,31.0
2021-02-21T18:48:00Z,00000200,01000000,0000.38,-000.04,0000.15,-000.23,-000.15,0000.10,0000.34,0000.25,0000.42,17.5,24.1,,00.0,0633.8,31.0
2021-02-21T18:49:00Z,00000200,01000000,0000.67,0000.09,-000.01,-000.40,0000.12,-000.04,-000.23,-000.01,-000.27,17.6,24.2,,00.0,0633.9,31.0
2021-02-21T18:50:00Z,00000200,01000000,-000.08,0000.10,0000.07,0000.13,0000.25,0000.09,-000.00,-000.27,-000.24,17.7,24.2,,00.0,0633.9,31.0
2021-02-21T18:51:00Z,00000200,01000000,0000.01,-000.01,0000.16,-000.09,0000.21,-000.06,-000.13,0000.72,0000.27,17.7,24.2,,00.0,0633.9,31.0
2021-02-21T18:52:00Z,00000200,01000000,0000.18,0000.08,0000.14,0000.13,-000.02,0000.05,0000.29,-000.37,0000.13,17.6,24.2,,00.0,0634.0,31.0
2021-02-21T18:53:00Z,00000200,01000000,0000.34,-000.12,-000.05,0000.04,-000.14,0000.06,0000.05,-000.07,-000.30,17.6,24.2,,00.0,0634.0,31.0
2021-02-21T18:54:00Z,00000200,01010000,0000.07,0000.15,0000.01,0000.15,0000.08,0000.09,0000.15,0000.27,0000.19,17.6,24.2,,00.0,0634.1,31.0
2021-02-21T18:55:00Z,00000200,01000000,-000.06,0000.20,-000.30,-000.03,-000.15,-000.13,-000.34,-000.24,0000.06,17.6,24.2,,00.0,0634.0,31.0
2021-02-21T18:56:00Z,00000200,01000000,-000.09,-000.35,0000.04,0000.00,0000.22,0000.13,-000.10,0000.00,0000.10,17.6,24.2,,00.0,0634.1,31.0
2021-02-21T18:57:00Z,00000200,41000000,,,,,,,0000.51,0000.04,-000.16,17.6,24.2,,00.0,0634.3,31.0
2021-02-21T18:58:00Z,00000200,61000000,,,,,,,-000.58,-000.14,-000.21,17.2,24.3,,00.0,0633.2,31.0
2021-02-21T18:59:00Z,00000200,21000000,,,,,,,0000.11,-000.17,0000.07,17.2,24.4,,00.0,0633.2,31.0
